Flag Weather past 2 weeks in Mörfelden-Walldorf, Hesse, Germany

Now
39 °F

Clear.


Feels Like: 36 °F
Forecast: 37 / 46 °F
Wind: 5 mph from East

Location: Frankfurt-M-Flughafen Airport

Current Time: Nov 21, 2014 at 9:59:40 PM

Latest Report: Nov 21, 2014 at 9:20 PM


Visibility: 10 mi

Pressure: 30.15 "Hg

Humidity: 87%

Dew point: 36 °F

Location of Mörfelden-WalldorfLocation

Historic Weather in Mörfelden-Walldorf — Graph

°F

Mörfelden-Walldorf temperature yesterday

Maximum temperature yesterday: 46 °F (at 10:50 AM)
Minimum temperature yesterday: 39 °F (at 11:50 PM)
Average temperature yesterday: 44 °F

Past Weeks' High & Low Weather Summary

 TemperatureHumidityPressure
High55 °F (Nov 8, 2:50 PM)100% (Nov 6, 8:50 PM)30.33 "Hg (Nov 6, 8:50 PM)
Low34 °F (Nov 7, 4:20 AM)66% (Nov 21, 1:20 PM)29.50 "Hg (Nov 16, 5:50 AM)
Average47 °F90%29.85 "Hg
* Reported Nov 6 8:20 PM — Nov 21 8:50 PM, Mörfelden-Walldorf, Weather by CustomWeather, © 2014

Note: Actual official high and low records may vary slightly from our data, if they occured in-between our weather recording intervals... More about our weather records

Advertising

Mörfelden-Walldorf weather history for previous 24 hours

 ConditionsComfort  
Time TempWeatherWind HumidityBarometerVisibility
8:50 PM
Nov 21
39 °FPassing clouds.3 mph87%30.15 "HgN/A
8:20 PM41 °FClear.7 mph81%30.15 "Hg10 mi
7:50 PM41 °FClear.8 mph81%30.15 "Hg10 mi
7:20 PM43 °FClear.8 mph76%30.15 "Hg10 mi
6:50 PM45 °FClear.7 mph76%30.15 "Hg10 mi
6:20 PM45 °FClear.8 mph76%30.15 "Hg10 mi
5:50 PM45 °FClear.7 mph76%30.15 "Hg10 mi
5:20 PM43 °FClear.6 mph81%30.15 "Hg10 mi
4:50 PM45 °FClear.7 mph76%30.15 "Hg10 mi
4:20 PM46 °FSunny.5 mph71%30.15 "Hg10 mi
3:50 PM48 °FSunny.6 mph66%30.15 "Hg10 mi
3:20 PM48 °FPartly sunny.9 mph66%30.15 "HgN/A
2:50 PM48 °FPartly sunny.10 mph66%30.18 "HgN/A
2:20 PM48 °FPartly sunny.13 mph66%30.18 "HgN/A
1:50 PM48 °FPartly sunny.10 mph66%30.18 "HgN/A
1:20 PM48 °FPartly sunny.9 mph66%30.18 "HgN/A
12:50 PM46 °FPartly sunny.10 mph76%30.18 "HgN/A
12:20 PM46 °FPartly sunny.12 mph71%30.21 "HgN/A
11:50 AM45 °FPartly sunny.10 mph76%30.21 "HgN/A
11:20 AM45 °FPartly sunny.10 mph81%30.21 "HgN/A
10:50 AM43 °FSunny.10 mph87%30.21 "Hg10 mi
10:20 AM43 °FSunny.10 mph81%30.21 "Hg10 mi
9:50 AM41 °FSunny.7 mph87%30.21 "Hg10 mi
9:20 AM41 °FSunny.8 mph87%30.24 "Hg10 mi
8:50 AM39 °FPassing clouds.8 mph93%30.24 "HgN/A
8:20 AM36 °FSunny.7 mph93%30.24 "Hg10 mi
7:50 AM36 °FSunny.7 mph93%30.24 "Hg10 mi
7:20 AM36 °FClear.6 mph100%30.21 "Hg10 mi
6:50 AM37 °FClear.7 mph93%30.24 "Hg10 mi
6:20 AM36 °FPassing clouds.6 mph93%30.21 "HgN/A
5:50 AM37 °FClear.6 mph93%30.24 "Hg10 mi
5:20 AM36 °FClear.6 mph93%30.24 "Hg10 mi
4:50 AM36 °FPassing clouds.6 mph100%30.24 "HgN/A
4:20 AM37 °FChilly.6 mph93%30.24 "HgN/A
3:50 AM37 °FPassing clouds.6 mph100%30.27 "HgN/A
3:20 AM39 °FPassing clouds.7 mph93%30.27 "HgN/A
2:50 AM39 °FPassing clouds.8 mph93%30.27 "HgN/A
2:20 AM39 °FPassing clouds.8 mph93%30.27 "HgN/A
1:50 AM39 °FPassing clouds.8 mph93%30.27 "HgN/A
1:20 AM41 °FPassing clouds.7 mph93%30.27 "HgN/A
12:50 AM41 °FPassing clouds.6 mph93%30.27 "HgN/A
12:20 AM41 °FPassing clouds.7 mph93%30.27 "HgN/A
11:50 PM
Nov 20
39 °FPassing clouds.7 mph87%30.27 "HgN/A
11:20 PM41 °FPassing clouds.6 mph87%30.30 "HgN/A
10:50 PM41 °FPassing clouds.7 mph87%30.30 "HgN/A
10:20 PM45 °FPassing clouds.8 mph81%30.30 "HgN/A
9:50 PM43 °FPassing clouds.7 mph87%30.30 "HgN/A
9:20 PM41 °FPassing clouds.8 mph87%30.30 "HgN/A
Weather by CustomWeather, © 2014

See weather overviewHow to use our weather pages